Vorticity
nan nan nan nan nan nan nan nan nan nan nan nan nan nan nan nan nan nan nan nan nan nan nan nan nan nan nan nan nan nan nan nan nan nan nan nan nan nan nan nan nan nan nan nan nan
nan 11 10 9 6 6 8 7 3 13 20 8 6 5 8 8 2 -4 7 11 9 7 7 5 4 -1 3 9 12 12 7 7 9 11 11 8 7 8 2 4 6 3 11 14 nan
nan 11 13 11 6 6 6 9 -1 12 20 8 7 7 7 3 1 9 8 4 6 6 5 6 7 6 -0 1 7 16 13 9 7 8 11 12 9 5 5 9 9 9 8 5 nan
nan 9 14 13 8 7 4 9 2 8 19 13 6 8 7 -1 2 18 10 6 8 5 7 8 7 7 8 4 4 4 11 9 8 8 10 10 8 5 2 0 14 24 13 7 nan
nan 9 14 13 8 7 8 8 -0 13 27 11 7 5 5 4 -4 9 17 7 7 7 8 6 2 6 9 7 3 3 9 4 6 8 9 8 12 10 6 2 9 18 12 6 nan
nan 10 15 15 10 7 8 8 3 13 17 12 8 2 4 7 -0 8 17 5 9 9 6 4 6 7 8 12 10 8 6 3 2 6 11 9 8 10 15 10 8 8 6 7 nan
nan 18 18 16 8 5 10 3 6 17 16 11 4 -1 3 9 10 13 13 8 10 13 9 4 9 12 6 9 12 14 7 5 4 6 6 11 9 6 13 11 6 5 8 9 nan
nan 17 13 11 9 11 8 2 15 18 21 10 -2 -4 8 11 13 12 7 5 2 7 14 11 9 8 9 12 10 3 6 8 8 2 6 8 9 14 10 7 8 6 7 10 nan
nan 12 12 11 13 8 6 10 12 21 17 1 -5 5 6 13 17 9 7 2 -1 4 8 7 9 7 12 9 5 8 10 7 5 6 5 6 5 3 9 11 11 8 8 7 nan
nan 6 13 10 11 6 7 20 17 19 5 -7 3 9 20 20 11 7 7 4 1 1 4 8 8 8 13 7 4 8 10 13 4 9 7 6 3 -2 -2 8 9 10 9 7 nan
nan 5 8 9 8 2 10 14 11 23 6 -3 6 9 18 17 9 12 8 -3 1 5 8 8 10 14 12 7 7 4 4 3 10 8 12 8 5 7 2 0 2 7 10 9 nan
nan 11 10 9 7 7 12 12 9 19 7 6 6 2 16 9 7 13 2 -2 4 8 4 8 15 12 7 8 9 9 6 5 8 3 5 11 10 8 9 2 2 6 9 8 nan
nan 13 12 9 6 15 11 18 31 4 -4 11 14 6 13 5 7 11 -5 1 4 7 6 6 8 12 16 9 7 10 10 11 7 6 4 11 17 16 12 9 9 6 5 9 nan
nan 10 10 7 7 10 16 25 14 -4 -4 15 12 7 10 9 21 7 2 3 9 6 3 10 14 16 11 11 4 5 10 15 13 8 14 9 12 23 22 13 10 9 6 6 nan
nan 10 10 -1 4 7 17 23 2 9 7 6 2 11 23 16 15 8 0 8 16 7 5 15 14 9 7 14 6 7 14 10 7 6 13 7 7 6 14 20 12 10 8 7 nan
nan 8 7 4 5 7 19 19 3 11 9 6 11 13 12 16 4 2 2 12 21 6 3 19 14 6 12 10 12 7 -0 2 7 10 12 15 4 3 10 9 12 13 12 11 nan
nan 8 2 5 10 8 23 12 2 13 10 9 10 20 10 8 15 10 2 7 8 1 7 9 5 8 9 1 7 5 2 1 8 8 5 18 13 7 6 12 12 15 16 15 nan
nan 8 5 6 7 7 17 13 10 14 10 13 19 9 12 14 7 7 3 4 5 2 8 4 10 16 1 1 13 5 2 9 10 8 8 9 11 7 5 8 13 10 8 18 nan
nan 6 11 10 9 10 8 14 19 7 11 17 14 -0 6 10 16 15 10 1 8 7 3 4 11 16 6 12 8 2 8 7 9 9 12 8 9 8 9 8 14 12 8 9 nan
nan 8 10 13 9 5 7 13 16 12 16 7 2 6 9 14 15 12 10 11 6 7 5 7 8 10 9 6 8 12 5 2 8 7 8 9 10 15 11 17 14 14 10 9 nan
nan 8 9 7 6 7 9 12 17 22 6 3 1 5 14 18 11 15 2 6 11 8 8 5 3 13 9 12 5 6 5 1 8 8 6 11 8 13 13 12 15 16 12 9 nan
nan 8 9 6 5 7 12 12 20 17 -3 10 11 13 17 4 1 10 12 9 18 5 1 1 14 21 4 1 15 8 7 3 1 10 4 9 13 9 8 9 8 8 6 10 nan
nan 9 10 11 9 8 10 14 25 13 9 7 5 15 17 3 8 11 12 13 17 4 4 1 5 9 7 8 26 16 4 2 -4 8 14 3 9 11 2 6 10 3 6 11 nan
nan 7 8 12 10 11 11 13 18 13 8 9 9 14 13 3 8 18 9 18 16 0 -4 8 12 8 5 13 16 16 11 10 3 -3 10 2 2 1 4 3 4 5 5 4 nan
nan 9 11 14 13 6 9 14 14 7 9 15 14 15 3 2 3 10 8 16 17 4 1 6 9 10 12 17 10 11 15 11 6 -2 -1 3 6 4 1 0 -0 3 8 9 nan
nan 8 7 11 16 11 6 12 12 11 15 11 14 12 2 2 14 12 5 14 12 8 4 4 9 9 7 18 16 14 13 13 8 5 -3 2 4 14 8 10 10 6 8 8 nan
nan nan nan nan nan nan nan nan nan nan nan nan nan nan nan nan nan nan nan nan nan nan nan nan nan nan nan nan nan nan nan nan nan nan nan nan nan nan nan nan nan nan nan nan nan
CAPE
63 108 123 119 62 69 33 1 1 0 96 127 124 23 3 1 0 0 0 0 0 0 0 0 0 0 0 0 0 0 0 0 0 0 0 0 0 0 0 0 0 0 0 0 5
115 138 168 157 158 70 29 1 0 6 121 116 110 41 11 6 0 0 0 0 0 0 0 0 0 0 0 0 0 0 0 0 0 0 0 0 0 0 0 0 0 0 0 1 4
148 174 257 189 156 77 43 25 10 0 153 102 106 38 12 0 24 2 0 0 0 0 0 0 0 0 0 0 0 0 0 0 0 0 0 0 0 0 0 0 0 0 0 5 11
239 309 218 352 191 102 85 28 47 4 106 109 104 35 4 1 25 0 0 0 0 0 0 3 10 0 0 0 0 0 0 0 0 0 0 0 0 0 0 0 0 0 0 3 2
250 363 361 364 306 91 91 36 55 0 107 145 91 35 3 1 9 0 0 0 0 0 0 0 2 0 0 0 0 0 0 0 0 0 0 0 0 0 0 0 0 0 0 2 0
387 419 305 315 301 157 95 85 41 6 128 184 84 19 0 2 0 0 0 0 0 0 0 0 3 0 0 0 0 0 0 0 0 0 0 0 0 0 0 0 0 0 0 0 0
527 524 316 277 265 225 141 75 57 70 124 216 94 0 0 0 0 0 0 0 0 0 0 0 0 0 0 0 0 0 0 0 0 0 0 0 0 0 0 0 0 0 0 0 0
502 406 337 275 220 199 95 29 46 66 127 199 91 2 0 0 0 0 0 0 0 0 0 0 0 0 0 0 0 0 0 0 0 0 0 0 0 0 0 0 0 0 0 0 0
190 145 112 65 142 68 4 51 0 64 163 213 25 1 0 0 0 0 0 6 0 0 0 0 0 0 0 0 0 0 0 0 0 0 0 0 0 0 0 0 0 0 0 0 0
109 1 95 83 52 61 1 50 6 104 155 136 8 0 0 0 0 0 1 9 0 3 0 2 0 0 1 1 3 0 0 0 0 0 0 0 0 0 0 0 0 0 0 0 0
179 138 42 65 31 9 99 102 44 50 103 61 0 0 0 0 0 0 2 20 0 3 3 1 3 0 1 1 3 0 0 0 0 0 0 0 0 0 0 0 0 0 0 0 0
74 111 56 56 30 15 19 88 56 48 58 13 1 0 0 3 5 22 38 5 18 2 0 1 0 0 6 17 0 0 0 0 0 0 0 0 0 0 0 0 0 0 0 0 0
24 72 105 85 45 26 2 15 30 63 59 13 1 0 4 0 0 33 57 16 9 0 0 0 1 0 6 3 0 0 0 0 0 0 0 0 0 0 0 0 0 0 0 0 0
25 26 40 80 33 9 1 80 40 51 17 2 2 0 0 2 1 1 34 2 1 0 0 0 0 0 1 0 3 0 0 0 0 0 0 0 0 0 0 0 0 0 0 0 0
16 43 58 35 44 0 0 3 29 47 6 3 4 1 0 1 0 1 0 0 0 0 0 0 0 2 0 0 0 0 0 0 0 0 0 0 0 0 0 0 0 0 0 0 0
17 61 103 57 46 1 1 6 1 13 5 3 5 3 1 0 2 0 0 0 0 0 0 0 0 2 0 0 0 0 0 0 0 0 0 0 0 0 0 0 0 0 0 0 0
24 38 78 59 33 3 28 18 0 2 0 3 1 0 1 8 0 0 0 0 0 0 0 0 0 0 0 0 0 0 0 1 1 1 0 0 0 0 0 0 0 0 0 0 0
41 55 73 78 99 65 0 3 0 0 6 5 2 0 2 11 1 2 0 0 3 3 1 0 0 0 0 0 0 0 0 0 1 0 0 0 0 0 0 0 0 0 0 0 0
51 70 76 81 59 4 0 2 0 2 5 9 0 0 0 0 5 1 1 0 0 3 0 1 0 0 0 0 0 0 0 0 0 0 0 0 0 0 0 0 0 0 0 0 0
57 72 78 102 32 1 1 11 0 0 1 2 0 0 0 1 1 0 0 7 1 0 3 0 0 0 0 0 0 0 0 0 0 0 0 0 0 0 0 0 0 0 0 0 0
72 48 8 27 0 1 15 5 3 0 0 0 0 7 0 1 0 0 3 2 3 0 0 0 0 0 0 0 2 0 3 0 0 0 1 0 0 0 0 0 0 0 0 0 0
72 43 3 12 37 1 24 2 2 4 0 0 0 0 0 5 2 2 2 0 2 0 0 0 0 0 0 0 0 0 0 0 0 0 0 0 0 0 0 0 0 0 0 0 0
25 5 2 42 50 14 4 2 7 11 2 2 0 0 0 0 2 5 1 0 0 0 0 0 0 5 1 0 0 0 0 0 0 0 0 0 0 0 0 0 0 0 0 0 0
27 62 3 15 5 3 0 3 5 3 0 0 0 0 0 0 0 0 0 0 0 0 0 0 0 0 0 0 0 0 0 0 0 0 0 0 0 0 0 0 0 0 0 0 0
16 36 13 16 7 17 2 4 3 1 0 0 0 0 0 0 0 0 0 0 0 0 0 0 0 0 0 0 0 0 0 0 0 0 0 0 0 0 0 0 0 0 0 0 0
7 4 4 5 2 15 4 2 4 2 0 0 0 0 0 0 0 0 0 0 0 0 0 0 0 0 0 0 0 0 0 0 0 0 0 0 0 0 0 0 0 0 0 0 0
2 2 25 8 10 26 12 3 3 3 0 0 0 0 0 0 0 0 0 0 0 0 0 0 0 0 0 0 0 0 0 0 0 0 0 0 0 0 0 0 0 0 0 0 0